This is the latest recevied weather packets stored in our database for station/object KE0FIN. If no packets are shown the sender has not sent any weather packets the latest 10 day(s).
| Time | Temp. | Humidity | Pressure | Rain* | Wind** | Luminosity | Snow |
|---|---|---|---|---|---|---|---|
| 1777934463 | 30° C | 38% | 1052.5 hPa | 0 mm | - | 186 W/m² | - |
| 1777934160 | 30° C | 36% | 1052.5 hPa | 0 mm | - | 210 W/m² | - |
| 1777933855 | 30° C | 36% | 1052.2 hPa | 0 mm | - | 259 W/m² | - |
| 1777933553 | 30.56° C | 36% | 1052.3 hPa | 0 mm | - | 279 W/m² | - |
| 1777933250 | 30.56° C | 33% | 1052.1 hPa | 0 mm | - | 262 W/m² | - |
| 1777932947 | 31.11° C | 33% | 1052.2 hPa | 0 mm | - | 316 W/m² | - |
| 1777932644 | 30.56° C | 33% | 1052.4 hPa | 0 mm | - | 324 W/m² | - |
| 1777932340 | 30.56° C | 35% | 1052.2 hPa | 0 mm | - | 281 W/m² | - |
| 1777932037 | 31.11° C | 34% | 1052.3 hPa | 0 mm | - | 360 W/m² | - |
| 1777931734 | 31.67° C | 33% | 1052.4 hPa | 0 mm | - | 344 W/m² | - |
| 1777931432 | 31.11° C | 33% | 1052.4 hPa | 0 mm | - | 408 W/m² | - |
| 1777931127 | 30.56° C | 34% | 1052.5 hPa | 0 mm | - | 418 W/m² | - |
| 1777930824 | 31.67° C | 33% | 1052.5 hPa | 0 mm | - | 219 W/m² | - |
| 1777930520 | 31.11° C | 33% | 1052.7 hPa | 0 mm | - | 440 W/m² | - |
| 1777930218 | 30.56° C | 33% | 1052.5 hPa | 0 mm | - | 495 W/m² | - |
| 1777929913 | 30.56° C | 33% | 1052.8 hPa | 0 mm | - | 488 W/m² | - |
| 1777929611 | 30.56° C | 32% | 1053 hPa | 0 mm | - | 538 W/m² | - |
| 1777929308 | 30° C | 33% | 1053 hPa | 0 mm | - | 523 W/m² | - |
| 1777929005 | 30° C | 33% | 1053.1 hPa | 0 mm | - | 269 W/m² | - |
| 1777928702 | 30.56° C | 31% | 1053.1 hPa | 0 mm | - | 455 W/m² | - |
| 1777928398 | 30° C | 31% | 1053.2 hPa | 0 mm | - | 436 W/m² | - |
| 1777928096 | 30.56° C | 31% | 1053.3 hPa | 0 mm | - | 458 W/m² | - |
| 1777927794 | 30° C | 34% | 1053.4 hPa | 0 mm | - | 336 W/m² | - |
| 1777927492 | 30° C | 32% | 1053.3 hPa | 0 mm | - | 268 W/m² | - |
| 1777927191 | 29.44° C | 33% | 1053.5 hPa | 0 mm | - | 555 W/m² | - |
* Rain latest hour (hover to see other rain measurements)
** Current wind speed in m/s (hover to see current wind gust speed)